TimeCDT,TemperatureF,Dew PointF,Humidity,Sea Level PressureIn,VisibilityMPH,Wind Direction,Wind SpeedMPH,Gust SpeedMPH,PrecipitationIn,Events,Conditions,WindDirDegrees,DateUTC
12:53 AM,42.1,36.0,79,30.09,10.0,WSW,3.5,-,N/A,,Clear,240,2013-10-26 05:53:00
1:53 AM,37.0,33.1,86,30.11,10.0,WSW,3.5,-,N/A,,Clear,240,2013-10-26 06:53:00
2:53 AM,34.0,32.0,92,30.13,9.0,WSW,5.8,-,N/A,,Clear,250,2013-10-26 07:53:00
3:53 AM,35.1,32.0,89,30.15,10.0,Calm,Calm,-,N/A,,Clear,0,2013-10-26 08:53:00
4:53 AM,41.0,35.1,79,30.16,10.0,Calm,Calm,-,N/A,,Clear,0,2013-10-26 09:53:00
5:53 AM,45.0,37.0,74,30.17,10.0,North,16.1,-,N/A,,Clear,350,2013-10-26 10:53:00
6:53 AM,42.1,35.1,76,30.22,10.0,NNW,12.7,-,N/A,,Clear,340,2013-10-26 11:53:00
7:53 AM,37.9,33.1,83,30.26,10.0,NW,9.2,-,N/A,,Clear,310,2013-10-26 12:53:00
8:53 AM,39.9,35.1,83,30.30,10.0,NW,6.9,-,N/A,,Clear,310,2013-10-26 13:53:00
9:53 AM,46.0,36.0,68,30.32,10.0,NW,8.1,-,N/A,,Clear,320,2013-10-26 14:53:00
10:53 AM,50.0,32.0,50,30.32,10.0,North,10.4,-,N/A,,Clear,350,2013-10-26 15:53:00
11:53 AM,54.0,28.9,38,30.33,10.0,NNW,11.5,-,N/A,,Clear,340,2013-10-26 16:53:00
12:53 PM,57.0,28.0,33,30.32,10.0,NNW,13.8,-,N/A,,Clear,330,2013-10-26 17:53:00
1:53 PM,59.0,26.1,28,30.30,10.0,NNW,11.5,-,N/A,,Clear,330,2013-10-26 18:53:00
2:53 PM,61.0,27.0,27,30.27,10.0,North,9.2,-,N/A,,Clear,350,2013-10-26 19:53:00
3:53 PM,62.1,28.0,28,30.24,10.0,NNW,11.5,-,N/A,,Clear,330,2013-10-26 20:53:00
4:53 PM,63.0,28.0,27,30.21,10.0,NW,8.1,-,N/A,,Clear,320,2013-10-26 21:53:00
5:53 PM,62.1,27.0,26,30.19,10.0,Calm,Calm,-,N/A,,Clear,0,2013-10-26 22:53:00
6:53 PM,57.0,26.1,30,30.19,10.0,SE,3.5,-,N/A,,Clear,130,2013-10-26 23:53:00
7:53 PM,54.0,27.0,35,30.20,10.0,SSE,5.8,-,N/A,,Clear,160,2013-10-27 00:53:00
8:53 PM,48.0,28.0,46,30.20,10.0,South,5.8,-,N/A,,Clear,180,2013-10-27 01:53:00
9:53 PM,44.1,28.9,55,30.18,10.0,SW,4.6,-,N/A,,Clear,220,2013-10-27 02:53:00
10:53 PM,41.0,30.0,65,30.17,10.0,WSW,6.9,-,N/A,,Clear,240,2013-10-27 03:53:00
11:53 PM,39.9,30.0,68,30.15,10.0,WSW,9.2,-,N/A,,Clear,240,2013-10-27 04:53:00